User: anonymous   Login
Location: Unspecified
(0.0000°N, 0.0000°E)
Time: 01:44:58
(UTC+00:00)
Language:

CORIOLIS - Orbit

View from above orbital plane
View from above orbital plane
View from above satellite
View from above satellite

Ground track
Ground track

The orbit data is extracted from the following two-line orbital elements,

1 27640U 03001A   17117.95597142 -.00000002 +00000-0 +20010-4 0  9992
2 27640 098.7446 128.8588 0015274 091.9293 323.3828 14.18940267740845
Epoch (UTC): 27 April 2017 22:56:35
Eccentricity: 0.0015274
inclination: 98.7446°
perigee height: 818 km
apogee height: 840 km
right ascension of ascending node: 128.8588°
argument of perigee: 91.9293°
revolutions per day: 14.18940267
mean anomaly at epoch: 323.3828°
orbit number at epoch: 74084

The dashed part of the orbit path shows where the satellite is in the earth's shadow,  

DLR